Flag for Iceland Weather past 2 weeks in Reykjavik, Iceland

Now
46 °F

Broken clouds.


Feels Like: 39 °F
Forecast: N/A
Wind: 20 mph from North

Location: Reykjavik Airport

Current Time: May 27, 2015 at 3:02:56 PM

Latest Report: May 27, 2015 at 2:00 PM


Visibility: N/A

Pressure: 29.50 "Hg

Humidity: 62%

Dew point: 34 °F

Location of ReykjavikLocation

Historic Weather in Reykjavik — Graph

°F

Reykjavik temperature yesterday

Maximum temperature yesterday: 43 °F (at 10:00 AM)
Minimum temperature yesterday: 37 °F (at 11:00 PM)
Average temperature yesterday: 41 °F

Past Weeks' High & Low Weather Summary

 TemperatureHumidityPressure
High50 °F (May 13, 4:00 PM)93% (May 21, 3:00 AM)30.04 "Hg (May 21, 3:00 AM)
Low34 °F (May 21, 3:00 AM)42% (May 12, 2:00 PM)28.74 "Hg (May 16, 12:00 AM)
Average43 °F71%29.57 "Hg
* Reported May 12 2:00 PM — May 27 2:00 PM, Reykjavik, Weather by CustomWeather, © 2015

Note: Actual official high and low records may vary slightly from our data, if they occured in-between our weather recording intervals... More about our weather records

Advertising

Reykjavik weather history for previous 24 hours

 ConditionsComfort  
Time TempWeatherWind HumidityBarometerVisibility
2:00 PM
Wed, May 27
46 °FBroken clouds.20 mph62%29.50 "HgN/A
1:00 PM45 °FLight rain. Broken clouds.20 mph66%29.50 "HgN/A
12:00 PM45 °FBroken clouds.15 mph71%29.50 "HgN/A
11:00 AM45 °FBroken clouds.12 mph71%29.50 "HgN/A
10:00 AM41 °FBroken clouds.5 mph76%29.50 "HgN/A
9:00 AM41 °FBroken clouds.7 mph76%29.50 "HgN/A
8:00 AM39 °FBroken clouds.6 mph81%29.50 "HgN/A
7:00 AM37 °FMore clouds than sun.3 mph87%29.50 "HgN/A
6:00 AM37 °FLight rain. Mostly cloudy.2 mph93%29.50 "HgN/A
5:00 AM39 °FDrizzle. More clouds than sun.7 mph81%29.50 "HgN/A
4:00 AM39 °FSprinkles. Mostly cloudy.7 mph81%29.50 "HgN/A
3:00 AM39 °FPartly cloudy.6 mph87%29.50 "HgN/A
2:00 AM39 °FSprinkles. Partly cloudy.7 mph81%29.53 "HgN/A
1:00 AM39 °FPartly cloudy.7 mph87%29.53 "HgN/A
12:00 AM39 °FSprinkles. Partly cloudy.12 mph87%29.56 "HgN/A
11:00 PM
Tue, May 26
37 °FBroken clouds.5 mph87%29.56 "HgN/A
10:00 PM41 °FSprinkles. Broken clouds.6 mph76%29.59 "HgN/A
9:00 PM41 °FScattered showers. Mostly cloudy.8 mph81%29.59 "HgN/A
7:52 PM41 °FBroken clouds.8 mph81%29.62 "HgN/A
7:00 PM43 °FQuite cool.10 mph76%29.62 "HgN/A
6:00 PM43 °FBroken clouds.8 mph76%29.62 "HgN/A
5:00 PM43 °FSprinkles. Broken clouds.7 mph81%29.62 "HgN/A
4:00 PM43 °FScattered showers. Broken clouds.7 mph81%29.65 "HgN/A
3:00 PM43 °FScattered showers. Broken clouds.12 mph81%29.65 "HgN/A
Weather by CustomWeather, © 2015

See weather overviewHow to use our weather pages